Hourly Data Report for May 22, 2021

TOBERMORY RCS
ONTARIO
Current Station Operator: ECCC - MSC

45°14'00.000" N
81°38'00.000" W
213.50 m
6128330
71767
TTR

Download Data

Hourly Data (May 2021)
Hourly Data Report for May 22, 2021
TIME
LST
Temp Definition
°C
Dew Point Definition
°C
Rel Hum Definition
%
Precip. Amount Definition
mm

Wind Dir Definition
10's deg

Wind Spd Definition
km/h
Visibility Definition
km
Stn Press Definition
kPa
Hmdx Definition


Wind Chill Definition


Weather Definition


00:00 14.6 10.6 77 0.0 28 8   99.96     LegendNANA
01:00 14.4 11.0 80 0.0 18 2   99.92     LegendNANA
02:00 14.0 10.7 80 0.0 29 4   99.91     LegendNANA
03:00 13.5 10.7 83 0.0 18 2   99.89     LegendNANA
04:00 12.8 10.4 85 0.0 19 4   99.92     LegendNANA
05:00 12.5 11.4 93 0.6 23 5   99.99     LegendNANA
06:00 14.5 14.1 97 1.9 24 7   100.00     LegendNANA
07:00 15.2 14.8 98 2.4 22 6   100.01     LegendNANA
08:00 15.9 15.6 98 0.6 23 3   99.97     LegendNANA
09:00 15.6 15.2 98 0.0 21 11   99.96     LegendNANA
10:00 14.9 14.6 98 0.0 21 9   99.88     LegendNANA
11:00 14.2 13.9 98 0.3 22 9   99.85     LegendNANA
12:00 14.8 14.5 98 0.0 23 10   99.80     LegendNANA
13:00 15.1 14.7 98 0.0 26 12   99.74     LegendNANA
14:00 15.0 14.6 97 0.0 26 10   99.72     LegendNANA
15:00 16.1 15.0 93 0.0 28 15   99.66     LegendNANA
16:00 18.5 16.7 89 0.0 27 15   99.61     LegendNANA
17:00 17.2 14.8 86 0.0 24 10   99.56     LegendNANA
18:00 13.8 12.7 93 0.0 20 8   99.52     LegendNANA
19:00 13.0 12.6 97 0.0 21 7   99.48     LegendNANA
20:00 13.0 12.7 98 0.0 21 9   99.44     LegendNANA
21:00 13.4 13.2 99 0.0 20 7   99.43     LegendNANA
22:00 14.8 14.6 99 0.0 24 6   99.37     LegendNANA
23:00 13.8 13.6 99 0.0 25 8   99.40     LegendNANA

Notes on Data Quality.

Legend

  • E = Estimated
  • M = Missing
  • NA = Not Available*
  • [empty] = Indicates an unobserved value
Date modified: